[[{"header":{"parameterUnit":"m.s-1","parameterCategory":1,"la1":30.2992,"la2":30.254,"lo1":-89.0895,"lo2":-89.0443,"dy":0.0025,"dx":0.0025,"nx":19,"ny":19,"refTime":"2026-04-25T09:00:00:Z","depth":0,"parameterNumber":2,"parameterNumberName":"U-component_of_WINDS"},"data":[0,0,0,1.4682,1.4684,1.4793,1.4793,1.493,1.4931,0,0,0,0,0,0,0,0,0,0,0,1.4648,1.4649,1.4682,1.4684,1.4793,1.4793,1.4929,1.4931,0,0,0,0,0,0,0,0,0,0,0,1.4648,1.4649,1.465,1.4685,1.4793,1.4793,1.4929,1.4848,0,0,0,0,0,0,0,0,0,0,1.4743,1.471,1.4648,1.465,1.4685,1.4792,1.4793,1.4844,1.4853,1.4879,0,1.4902,0,1.4918,1.494,1.494,0,0,0,1.4686,1.4703,1.4734,1.465,1.4686,1.4792,1.4744,1.4849,1.4859,1.4891,1.4904,1.4909,1.4921,1.4941,1.4941,1.5086,1.5086,0,0,1.468,1.4667,1.4727,1.474,1.4723,1.4741,1.4748,1.4855,1.4869,1.4904,1.4912,1.4923,1.4941,1.4942,1.5085,1.5086,0,0,0,1.4662,1.4663,1.4691,1.4734,1.4754,1.4744,1.4752,1.4864,1.4874,1.4914,1.4925,1.4942,1.4944,1.5085,1.5086,1.5103,0,0,0,1.4658,1.4652,1.4688,1.4681,1.4752,1.481,1.4758,1.4867,1.4879,1.4924,1.4942,1.4945,1.5084,1.5085,1.5101,1.5113,0,0,0,1.4642,1.465,1.4665,1.468,1.4726,1.4809,1.4825,1.487,1.4886,1.494,1.4946,1.5084,1.5085,1.5099,1.511,1.5147,0,0,0,1.462,1.4679,1.4665,1.4735,1.4725,1.4818,1.4825,1.4895,1.4944,1.4943,1.5084,1.5086,1.5099,1.5109,1.5145,1.5175,1.5187,0,0,1.4688,1.4687,1.4729,1.472,1.4812,1.4803,1.4898,1.4955,1.4973,1.5047,1.5051,1.5101,1.511,1.5147,1.5255,1.5264,0,0,0,1.4746,1.4776,1.4804,1.4849,1.4894,1.4933,1.4977,1.4998,1.5062,1.5008,1.5125,1.5131,1.5153,1.5168,1.5175,1.5195,1.5092,1.5092,1.5092,1.4823,1.4841,1.4912,1.4944,1.4988,1.5032,1.507,1.5106,1.5112,1.5139,1.5162,1.5225,1.5242,1.5248,1.5268,1.5179,1.5179,1.5179,1.5179,1.4923,1.4969,1.4975,1.5045,1.5065,1.5125,1.5169,1.5172,1.523,1.521,1.523,1.5206,1.5257,1.5276,1.5181,1.5181,1.518,1.518,1.518,1.4975,1.5,1.5024,1.5092,1.5141,1.5171,1.5227,1.5243,1.5258,1.5278,1.5303,1.5302,1.5304,1.5288,1.5289,1.5289,1.5289,1.5289,1.5289,1.502,1.5047,1.5091,1.5143,1.5174,1.5217,1.5261,1.5293,1.5331,1.5338,1.5338,1.5341,1.5259,1.5237,1.5293,1.5292,1.5292,1.5292,1.5291,1.5114,1.5095,1.5164,1.5195,1.5257,1.5305,1.5324,1.5386,1.5414,1.544,1.5439,1.5376,1.5376,1.5371,1.5353,1.5435,1.5435,1.5435,1.5435,1.5158,1.516,1.5233,1.5282,1.5331,1.5355,1.5432,1.5467,1.5501,1.5519,1.551,1.5488,1.5481,1.5486,1.5477,1.5461,1.5569,1.5569,1.5569,1.5217,1.5224,1.5287,1.5318,1.5368,1.541,1.5483,1.5538,1.5572,1.5575,1.5534,1.5528,1.5493,1.5481,1.5482,1.5469,1.544,0,0]},{"header":{"parameterUnit":"m.s-1","parameterCategory":1,"la1":30.2992,"la2":30.254,"lo1":-89.0895,"lo2":-89.0443,"dy":0.0025,"dx":0.0025,"nx":19,"ny":19,"refTime":"2026-04-25T09:00:00:Z","depth":0,"parameterNumber":3,"parameterNumberName":"V-component_of_WINDS"},"data":[0,0,0,1.319,1.319,1.3217,1.3218,1.3254,1.3255,0,0,0,0,0,0,0,0,0,0,0,1.3184,1.3184,1.319,1.319,1.3217,1.3218,1.3254,1.3255,0,0,0,0,0,0,0,0,0,0,0,1.3184,1.3184,1.3185,1.319,1.3217,1.3218,1.3254,1.3233,0,0,0,0,0,0,0,0,0,0,1.3206,1.3203,1.3184,1.3185,1.3191,1.3217,1.3218,1.3232,1.3234,1.3243,0,1.3253,0,1.3254,1.3257,1.3258,0,0,0,1.3188,1.3201,1.3206,1.3185,1.3191,1.3217,1.3205,1.3233,1.3236,1.3246,1.3253,1.3255,1.3255,1.3258,1.3258,1.3319,1.332,0,0,1.3187,1.319,1.3205,1.3208,1.3205,1.3204,1.3206,1.3235,1.3242,1.3253,1.3255,1.3256,1.3258,1.3258,1.3319,1.332,0,0,0,1.3184,1.3189,1.3193,1.3207,1.3212,1.3205,1.3207,1.3241,1.3242,1.3256,1.3256,1.3258,1.3259,1.3319,1.3319,1.3341,0,0,0,1.3183,1.3187,1.3193,1.3195,1.3211,1.3227,1.3212,1.324,1.3243,1.3256,1.3258,1.3259,1.3318,1.3319,1.334,1.3351,0,0,0,1.3181,1.3187,1.3192,1.3195,1.3207,1.3226,1.3229,1.3241,1.3243,1.3258,1.3259,1.3318,1.3319,1.3339,1.3349,1.3369,0,0,0,1.318,1.321,1.3192,1.3226,1.3207,1.324,1.3229,1.3253,1.3268,1.3258,1.3318,1.3319,1.3338,1.3348,1.3368,1.3387,1.3395,0,0,1.322,1.3215,1.3235,1.3219,1.3257,1.3235,1.3276,1.3286,1.3284,1.3307,1.3309,1.334,1.3349,1.3369,1.3438,1.3444,0,0,0,1.3248,1.3262,1.3272,1.3286,1.3295,1.3304,1.3308,1.3312,1.3332,1.3297,1.3352,1.3357,1.3369,1.3378,1.3383,1.3393,1.3323,1.3323,1.3323,1.3308,1.3305,1.3337,1.3337,1.3352,1.3355,1.3366,1.3372,1.3364,1.3377,1.3384,1.3427,1.3437,1.3441,1.3452,1.3393,1.3393,1.3394,1.3394,1.3366,1.3386,1.3375,1.3403,1.3399,1.3421,1.3426,1.3419,1.3439,1.3421,1.3431,1.3412,1.3449,1.3457,1.3395,1.3395,1.3395,1.3395,1.3394,1.3406,1.3415,1.3419,1.344,1.3457,1.3455,1.3475,1.347,1.3466,1.3475,1.3483,1.3482,1.3482,1.3479,1.3479,1.3479,1.348,1.348,1.348,1.3446,1.345,1.3468,1.348,1.3489,1.35,1.3504,1.3512,1.352,1.3515,1.3515,1.3506,1.3453,1.344,1.3482,1.3482,1.3481,1.3481,1.3481,1.3507,1.3492,1.352,1.3529,1.3543,1.356,1.3553,1.357,1.3576,1.3586,1.3575,1.3536,1.3531,1.3527,1.3516,1.3575,1.3575,1.3575,1.3575,1.3541,1.3538,1.3565,1.358,1.3594,1.3591,1.3622,1.3625,1.3625,1.3629,1.3619,1.3604,1.36,1.3597,1.3591,1.3582,1.3656,1.3656,1.3656,1.3579,1.3577,1.3604,1.3606,1.3616,1.3625,1.3654,1.3671,1.3668,1.3659,1.3631,1.3628,1.3604,1.3596,1.3588,1.3579,1.356,0,0]}]]